FW2498 Weather Reports


Display with metric or nautical units.
time (UTC)temp
F
wind
direction
speed
MPH
gust
MPH
rain 1hr
in
rain 24hr
in
rain mn
in
humidity
%
barometer
mb
20260505223039 43 339 14.0 22.0 0.00 0.00 0.00 36 1019.7
20260505221536 44 350 18.0 23.0 0.00 0.00 0.00 36 1019.6
20260505220032 43 332 19.0 23.0 0.00 0.00 0.00 37 1019.7
20260505214531 43 309 12.0 21.0 0.00 0.00 0.00 38 1019.8
20260505213031 42 316 13.0 25.0 0.00 0.00 0.00 38 1019.9
20260505211539 43 323 16.0 23.0 0.00 0.00 0.00 39 1019.9
20260505210028 43 325 17.0 26.0 0.00 0.00 0.00 38 1020.0
20260505204524 42 309 15.0 24.0 0.00 0.00 0.00 40 1020.1
20260505203023 41 347 14.0 19.0 0.00 0.00 0.00 40 1020.1
20260505201522 41 305 14.0 23.0 0.00 0.00 0.00 39 1020.4
20260505200122 41 339 16.0 24.0 0.00 0.00 0.00 39 1020.3
20260505194520 41 336 14.0 23.0 0.00 0.00 0.00 39 1020.5
20260505193017 41 317 14.0 24.0 0.00 0.00 0.00 40 1020.4
20260505191519 41 309 12.0 18.0 0.00 0.00 0.00 41 1020.2
20260505190016 40 350 12.0 25.0 0.00 0.00 0.00 41 1020.2
20260505184514 40 330 13.0 21.0 0.00 0.00 0.00 42 1020.3
20260505183014 39 333 11.0 23.0 0.00 0.00 0.00 43 1020.2
20260505181512 39 349 17.0 22.0 0.00 0.00 0.00 42 1020.3
20260505180010 38 300 15.0 22.0 0.00 0.00 0.00 43 1020.3
20260505174609 38 350 13.0 27.0 0.00 0.00 0.00 43 1020.3
20260505173008 38 318 13.0 25.0 0.00 0.00 0.00 44 1020.3
20260505171514 39 336 14.0 23.0 0.00 0.00 0.00 43 1020.1
20260505170008 38 333 16.0 28.0 0.00 0.00 0.00 42 1020.1
20260505164505 38 339 16.0 24.0 0.00 0.00 0.00 41 1019.9
20260505163009 37 300 13.0 21.0 0.00 0.00 0.00 45 1020.1
20260505161502 38 319 18.0 22.0 0.00 0.00 0.00 44 1019.9
20260505153056 36 315 18.0 24.0 0.00 0.00 0.00 49 1020.1
20260505151551 35 323 16.0 21.0 0.00 0.00 0.00 53 1020.1
20260505124526 34 323 11.0 15.0 0.00 0.00 0.00 66 1018.8
20260505123027 34 314 10.0 13.0 0.00 0.00 0.00 66 1018.8
20260505121517 33 312 9.0 13.0 0.00 0.00 0.00 68 1018.6
20260505120014 33 296 6.0 10.0 0.00 0.00 0.00 68 1018.5
20260505114512 33 300 10.0 13.0 0.00 0.00 0.00 67 1018.6
20260505113013 33 302 5.0 10.0 0.00 0.00 0.00 67 1018.3
20260505111511 33 304 7.0 10.0 0.00 0.00 0.00 67 1018.3
20260505101505 34 289 8.0 12.0 0.00 0.00 0.00 65 1018.2
20260505100003 34 298 9.0 13.0 0.00 0.00 0.00 65 1018.1
20260505094559 34 312 9.0 11.0 0.00 0.00 0.00 64 1017.9
20260505093057 34 303 8.0 13.0 0.00 0.00 0.00 64 1017.7
20260505091557 35 294 9.0 14.0 0.00 0.00 0.00 63 1017.6
20260505090056 35 293 7.0 11.0 0.00 0.00 0.00 62 1017.6
20260505084601 35 296 9.0 13.0 0.00 0.00 0.00 62 1017.6
20260505083105 35 295 9.0 13.0 0.00 0.00 0.00 61 1017.6
20260505081548 35 304 8.0 13.0 0.00 0.00 0.00 61 1017.6
20260505080047 35 309 6.0 11.0 0.00 0.00 0.00 61 1017.4
20260505074546 35 304 9.0 12.0 0.00 0.00 0.00 60 1017.4
20260505073049 35 308 8.0 12.0 0.00 0.00 0.00 60 1017.3
20260505071543 35 311 9.0 13.0 0.00 0.00 0.00 59 1017.3
20260505070042 35 304 9.0 12.0 0.00 0.00 0.00 59 1017.4
20260505064558 36 313 9.0 12.0 0.00 0.00 0.00 58 1017.3
20260505063037 36 323 8.0 10.0 0.00 0.00 0.00 59 1017.5
20260505061535 36 332 6.0 11.0 0.00 0.00 0.00 58 1017.3
20260505060034 36 317 7.0 12.0 0.00 0.00 0.00 56 1017.2
20260505054544 36 323 9.0 13.0 0.00 0.00 0.00 56 1017.2
20260505053033 36 337 9.0 12.0 0.00 0.00 0.00 56 1017.2
20260505051529 36 339 8.0 12.0 0.00 0.00 0.00 56 1017.0
20260505041522 37 351 10.0 15.0 0.00 0.00 0.00 55 1016.7
20260505040021 37 351 14.0 18.0 0.00 0.00 0.00 54 1016.6
20260505034525 37 351 8.0 11.0 0.00 0.00 0.00 54 1016.5
20260505033015 38 350 8.0 12.0 0.00 0.00 0.00 53 1016.2
20260505031511 39 354 8.0 12.0 0.00 0.00 0.00 52 1015.9
20260505030029 39 358 9.0 16.0 0.00 0.00 0.00 51 1015.6
20260505024514 40 348 12.0 19.0 0.00 0.00 0.00 50 1015.4
20260505023006 40 342 15.0 21.0 0.00 0.00 0.00 50 1015.1
20260505021504 40 350 14.0 21.0 0.00 0.00 0.00 49 1014.8
20260505020002 41 346 14.0 20.0 0.00 0.00 0.00 50 1014.5
20260505014603 41 352 15.0 21.0 0.00 0.00 0.00 49 1014.3
20260505013058 42 341 16.0 21.0 0.00 0.00 0.00 49 1014.0
20260505011601 42 326 18.0 24.0 0.00 0.00 0.00 48 1013.8
20260505010109 42 325 15.0 27.0 0.00 0.00 0.00 49 1013.7
20260505004610 43 330 17.0 23.0 0.00 0.00 0.00 47 1013.6
20260505003057 43 327 18.0 25.0 0.00 0.00 0.00 47 1013.5
20260505001551 43 323 18.0 29.0 0.00 0.00 0.00 46 1013.2
20260504234549 44 323 21.0 29.0 0.00 0.00 0.00 45 1013.0
20260504233049 44 333 20.0 30.0 0.00 0.00 0.00 44 1012.8
20260504231617 45 316 21.0 29.0 0.00 0.00 0.00 43 1012.7
20260504230045 45 312 23.0 32.0 0.00 0.00 0.00 43 1012.5
20260504224544 45 323 24.0 32.0 0.00 0.00 0.00 43 1012.3